[[{"header":{"parameterUnit":"m.s-1","parameterCategory":1,"la1":30.2992,"la2":30.254,"lo1":-89.0895,"lo2":-89.0443,"dy":0.0025,"dx":0.0025,"nx":19,"ny":19,"refTime":"2026-04-22T03:00:00:Z","depth":0,"parameterNumber":2,"parameterNumberName":"U-component_of_WINDS"},"data":[0,0,0,-5.0002,-5.0004,-5.0108,-5.0109,-5.0245,-5.0246,0,0,0,0,0,0,0,0,0,0,0,-4.9974,-4.9975,-5.0001,-5.0004,-5.0108,-5.0109,-5.0244,-5.0246,0,0,0,0,0,0,0,0,0,0,0,-4.9973,-4.9975,-4.9976,-5.0004,-5.0108,-5.0109,-5.0244,-5.0164,0,0,0,0,0,0,0,0,0,0,-5.0062,-5.004,-4.9974,-4.9976,-5.0005,-5.0108,-5.0109,-5.016,-5.0169,-5.0199,0,-5.0228,0,-5.0239,-5.0255,-5.0256,0,0,0,-5.0001,-5.0033,-5.0058,-4.9976,-5.0006,-5.0108,-5.006,-5.0165,-5.0175,-5.0211,-5.023,-5.0235,-5.0242,-5.0256,-5.0257,-5.0444,-5.0445,0,0,-4.9995,-4.9994,-5.0051,-5.0065,-5.0051,-5.0057,-5.0064,-5.0171,-5.0191,-5.0231,-5.0238,-5.0244,-5.0257,-5.0258,-5.0443,-5.0445,0,0,0,-4.9981,-4.999,-5.0013,-5.0059,-5.0078,-5.006,-5.0068,-5.0186,-5.0194,-5.024,-5.0246,-5.0258,-5.026,-5.0442,-5.0444,-5.0492,0,0,0,-4.9977,-4.9981,-5.001,-5.001,-5.0076,-5.0134,-5.0081,-5.0187,-5.0199,-5.0245,-5.0258,-5.0261,-5.0441,-5.0443,-5.0489,-5.0515,0,0,0,-4.9966,-4.998,-4.9996,-5.001,-5.0055,-5.0132,-5.0146,-5.0189,-5.0203,-5.0256,-5.0262,-5.044,-5.0443,-5.0485,-5.0509,-5.0563,0,0,0,-4.9953,-5.0037,-4.9997,-5.0094,-5.0054,-5.0162,-5.0145,-5.0226,-5.0277,-5.0259,-5.0441,-5.0444,-5.0484,-5.0506,-5.0559,-5.0607,-5.0627,0,0,-5.0058,-5.005,-5.0107,-5.0074,-5.0189,-5.0147,-5.0268,-5.0316,-5.0322,-5.0403,-5.0407,-5.049,-5.0509,-5.0562,-5.0744,-5.076,0,0,0,-5.0139,-5.018,-5.0211,-5.0261,-5.0302,-5.0338,-5.0368,-5.0386,-5.0455,-5.0364,-5.0525,-5.0536,-5.0567,-5.059,-5.0604,-5.063,-5.0455,-5.0454,-5.0454,-5.0284,-5.0289,-5.0384,-5.0402,-5.045,-5.0482,-5.0521,-5.055,-5.0539,-5.0578,-5.0601,-5.071,-5.0737,-5.0747,-5.0775,-5.0628,-5.0628,-5.0628,-5.0628,-5.0438,-5.0496,-5.0482,-5.0569,-5.0573,-5.0645,-5.0679,-5.0669,-5.0736,-5.0693,-5.0721,-5.0672,-5.0765,-5.0789,-5.0632,-5.0631,-5.0631,-5.063,-5.063,-5.0532,-5.0561,-5.0583,-5.0657,-5.0713,-5.0728,-5.0794,-5.0795,-5.0796,-5.0824,-5.0849,-5.0848,-5.0846,-5.0836,-5.0837,-5.0837,-5.0837,-5.0838,-5.0838,-5.062,-5.0644,-5.07,-5.0751,-5.0784,-5.0827,-5.0861,-5.0893,-5.0928,-5.0924,-5.0924,-5.0909,-5.0774,-5.0739,-5.0844,-5.0843,-5.0842,-5.0841,-5.0841,-5.0772,-5.0738,-5.0825,-5.0858,-5.0918,-5.0974,-5.0976,-5.1041,-5.1068,-5.11,-5.108,-5.0981,-5.0971,-5.096,-5.0931,-5.1079,-5.1079,-5.1079,-5.1079,-5.085,-5.0847,-5.0936,-5.0989,-5.1041,-5.1052,-5.1148,-5.1175,-5.1197,-5.1214,-5.1193,-5.1156,-5.1145,-5.1142,-5.1127,-5.11,-5.1288,-5.1288,-5.1288,-5.0943,-5.0945,-5.1027,-5.105,-5.1098,-5.1139,-5.1229,-5.1289,-5.1308,-5.1297,-5.1227,-5.1218,-5.1158,-5.1138,-5.1123,-5.11,-5.105,0,0]},{"header":{"parameterUnit":"m.s-1","parameterCategory":1,"la1":30.2992,"la2":30.254,"lo1":-89.0895,"lo2":-89.0443,"dy":0.0025,"dx":0.0025,"nx":19,"ny":19,"refTime":"2026-04-22T03:00:00:Z","depth":0,"parameterNumber":3,"parameterNumberName":"V-component_of_WINDS"},"data":[0,0,0,3.9745,3.9746,3.9804,3.9805,3.9876,3.9876,0,0,0,0,0,0,0,0,0,0,0,3.9725,3.9726,3.9744,3.9746,3.9804,3.9805,3.9876,3.9876,0,0,0,0,0,0,0,0,0,0,0,3.9725,3.9726,3.9726,3.9746,3.9804,3.9805,3.9876,3.9833,0,0,0,0,0,0,0,0,0,0,3.9776,3.9757,3.9726,3.9726,3.9746,3.9804,3.9805,3.983,3.9835,3.9848,0,3.9859,0,3.9869,3.9881,3.9881,0,0,0,3.9747,3.9753,3.9771,3.9726,3.9747,3.9804,3.9778,3.9833,3.9838,3.9854,3.986,3.9863,3.987,3.9882,3.9882,3.9957,3.9957,0,0,3.9743,3.9734,3.9767,3.9774,3.9765,3.9776,3.978,3.9836,3.9842,3.9861,3.9865,3.9872,3.9882,3.9883,3.9956,3.9957,0,0,0,3.9734,3.9732,3.9749,3.9771,3.9782,3.9778,3.9782,3.984,3.9846,3.9866,3.9872,3.9882,3.9883,3.9956,3.9956,3.9964,0,0,0,3.9732,3.9726,3.9747,3.9742,3.9781,3.9811,3.9784,3.9842,3.9849,3.9872,3.9882,3.9884,3.9956,3.9956,3.9963,3.9968,0,0,0,3.9722,3.9725,3.9733,3.9741,3.9767,3.9811,3.982,3.9844,3.9853,3.9881,3.9884,3.9955,3.9956,3.9962,3.9967,3.9986,0,0,0,3.9709,3.9737,3.9733,3.9768,3.9766,3.9816,3.982,3.9857,3.9882,3.9883,3.9956,3.9956,3.9962,3.9966,3.9985,4.0001,4.0007,0,0,3.9739,3.974,3.9761,3.976,3.9808,3.9807,3.9857,3.9887,3.9897,3.9936,3.9938,3.9963,3.9967,3.9986,4.0042,4.0047,0,0,0,3.9768,3.9783,3.9798,3.9823,3.9849,3.9872,3.9897,3.9909,3.9943,3.9916,3.9976,3.9978,3.999,3.9998,4.0001,4.0013,3.996,3.996,3.9959,3.9796,3.981,3.9847,3.9869,3.9894,3.9921,3.9942,3.9963,3.9968,3.9982,3.9993,4.0026,4.0035,4.0038,4.0049,4.0003,4.0003,4.0003,4.0003,3.9842,3.9866,3.9876,3.9915,3.993,3.9963,3.9992,3.9995,4.0027,4.0018,4.0029,4.0017,4.0042,4.0053,4.0004,4.0004,4.0004,4.0003,4.0003,3.9861,3.9876,3.9892,3.9933,3.9962,3.9984,4.0016,4.0028,4.0039,4.0051,4.0065,4.0065,4.0066,4.0057,4.0057,4.0057,4.0057,4.0057,4.0057,3.9875,3.9893,3.992,3.9953,3.9973,4.0,4.0031,4.0051,4.0075,4.0081,4.0081,4.0086,4.0042,4.0031,4.0059,4.0059,4.0059,4.0058,4.0058,3.9915,3.9909,3.995,3.997,4.0012,4.0042,4.0059,4.0098,4.0116,4.0132,4.0135,4.0101,4.0102,4.0099,4.009,4.0131,4.0131,4.0131,4.0131,3.9932,3.9935,3.9981,4.0013,4.0046,4.0066,4.0113,4.0138,4.0163,4.0175,4.0171,4.0161,4.0157,4.016,4.0156,4.0148,4.0203,4.0203,4.0203,3.9958,3.9966,4.0002,4.0029,4.0064,4.0094,4.0138,4.0175,4.0201,4.0206,4.0185,4.0182,4.0165,4.0159,4.0161,4.0154,4.0139,0,0]}]]